Location: Caoba
(9.7667°N, 67.4833°W)
Time: 21:00:07
(UTC+00:00)

GOES 2 Rocket - Pass Details

Date: 05 December 2024
Orbit: 569 x 1662 km, 28.4° (Epoch: 14 January)

Event Time Altitude Azimuth Distance (km) Brightness Sun altitude
Rises 23:17:43 0° 207° (SSW) 4,675 8.3 -16.7°
Reaches altitude 10° 23:23:23 10° 183° (S) 3,474 7.2 -18.1°
Maximum altitude 23:27:05 13° 158° (SSE) 3,058 6.6 -18.9°
Drops below altitude 10° 23:30:28 10° 132° (SE) 3,115 6.4 -19.7°
Enters shadow 23:31:29 - 125° (SE) 3,218 6.4 -19.9°
